Flag for U.S.A. Weather past 2 weeks in Wailuku, Hawaii, U.S.A.

Now
82 °F

Passing clouds.


Feels Like: 86 °F
Forecast: 74 / 84 °F
Wind: 13 mph from Northeast

Location: Kahului Airport

Current Time: Oct 23, 2014 at 9:36:13 AM

Latest Report: Oct 23, 2014 at 8:54 AM


Visibility: 10 mi

Pressure: 30.07 "Hg

Humidity: 67%

Dew point: 70 °F

Location of WailukuLocation

Historic Weather in Wailuku — Graph

°F

Wailuku temperature yesterday

Maximum temperature yesterday: 86 °F (at 10:54 AM)
Minimum temperature yesterday: 72 °F (at 11:54 PM)
Average temperature yesterday: 76 °F

Past Weeks' High & Low Weather Summary

 TemperatureHumidityPressure
High90 °F (Oct 8, 12:54 PM)94% (Oct 19, 1:24 AM)30.06 "Hg (Oct 19, 1:24 AM)
Low69 °F (Oct 14, 3:54 AM)45% (Oct 9, 9:54 AM)29.85 "Hg (Oct 17, 2:54 PM)
Average80 °F72%29.98 "Hg
* Reported Oct 8 7:54 AM — Oct 23 7:54 AM, Wailuku, Weather by CustomWeather, © 2014

Note: Actual official high and low records may vary slightly from our data, if they occured in-between our weather recording intervals... More about our weather records

Advertising

Wailuku weather history for previous 24 hours

 ConditionsComfort  
Time TempWeatherWind HumidityBarometerVisibility
7:54 AM
Oct 23
77 °FPassing clouds.No wind77%30.06 "Hg10 mi
6:54 AM69 °FPassing clouds.No wind93%30.04 "Hg10 mi
5:54 AM70 °FClear.3 mph90%30.01 "Hg10 mi
4:54 AM71 °FClear.5 mph90%30.00 "Hg10 mi
3:54 AM73 °FClear.No wind88%29.99 "Hg10 mi
2:54 AM74 °FClear.6 mph85%29.99 "Hg10 mi
1:54 AM73 °FClear.3 mph88%30.01 "Hg10 mi
12:54 AM73 °FClear.No wind90%30.02 "Hg10 mi
11:54 PM
Oct 22
72 °FPassing clouds.No wind93%30.03 "Hg10 mi
10:54 PM74 °FPassing clouds.No wind91%30.03 "Hg10 mi
9:54 PM74 °FClear.No wind94%30.04 "Hg10 mi
8:54 PM74 °FClear.No wind94%30.05 "Hg10 mi
7:54 PM75 °FPassing clouds.5 mph90%30.04 "Hg10 mi
6:54 PM76 °FPartly cloudy.No wind88%30.02 "Hg10 mi
5:54 PM76 °FBroken clouds.3 mph91%30.01 "Hg10 mi
5:22 PM75 °FBroken clouds.5 mph94%29.99 "Hg10 mi
4:54 PM76 °FFog.3 mph91%30.00 "Hg5 mi
4:08 PM75 °FRain. Fog.6 mph94%29.97 "Hg2 mi
3:59 PM77 °FLight rain. Fog.6 mph89%29.97 "Hg3 mi
2:54 PM77 °FRain. Fog.5 mph90%29.98 "Hg4 mi
1:54 PM78 °FMore clouds than sun.7 mph90%29.99 "Hg7 mi
12:54 PM77 °FRain. Broken clouds.8 mph88%30.01 "Hg8 mi
11:54 AM84 °FPartly sunny.16 mph70%30.02 "Hg10 mi
10:54 AM86 °FPartly sunny.10 mph63%30.03 "Hg10 mi
9:54 AM85 °FPassing clouds.5 mph59%30.05 "Hg10 mi
Weather by CustomWeather, © 2014

See weather overviewHow to use our weather pages